INTELSAT 22 (IS-22)

Last updated on Thu Oct 30 2025 00:02:49 GMT+0000 (Coordinated Universal Time)

1 38098U 12011A 25302.41405073 -.00000049 00000+0 00000+0 0 9991 2 38098 0.0209 271.9832 0001766 307.4933 39.7048 1.00273059 4879
UTC large
Height (km)
Speed (km/s)
/
Latitude / Longitude
Inclination (degrees)
Orbital Period (minutes)
Azimuth
Elevation
Range (km)
Doppler Factor

Next 0 passes for location: London (51.5072 / 0.1276)

Sorry there are no passes over London.